Weather History for Bishop, CA

Change the Weather History Date:

Friday, August 2, 2013

  Actual Average Record
Temperature  
Mean Temperature 74 °F 77 °F  
Max Temperature 95 °F 98 °F 107 °F (1993)
Min Temperature 53 °F 56 °F 44 °F (1956)
Degree Days  
Heating Degree Days 0 0  
Month to date heating degree days 0 0  
Since 1 June heating degree days 0 20  
Since 1 July heating degree days 0 1  
Cooling Degree Days 9 12  
Month to date cooling degree days 16 24  
Year to date cooling degree days 887 688  
Since 1 June cooling degree days 801 620  
Growing Degree Days 24 (Base 50)    
Moisture  
Dew Point 23 °F    
Average Humidity 21    
Maximum Humidity 35    
Minimum Humidity 6    
Precipitation  
Precipitation 0.00 in 0.00 in 0.15 in (1945)
Month to date precipitation 0.00 0.01  
Year to date precipitation 0.95 3.25  
Snow  
Snow 0.00 in 0.00 in - ()
Month to date snowfall 0.0 0.0  
Since 1 June snowfall 0.0 0.0  
Since 1 July snowfall 0.0 0.0  
Snow Depth 0.00 in    
Sea Level Pressure  
Sea Level Pressure 29.81 in    
Wind  
Wind Speed 10 mph (SSW)    
Max Wind Speed 23 mph    
Max Gust Speed 28 mph    
Visibility 9 miles    
Events      
T = Trace of Precipitation, MM = Missing Value Source: NWS Daily Summary

Daily Weather History Graph

Daily Weather History Graph

Search for Another Location

Airport:

Trip Planner

Search our weather history database for the weather conditions in past years. The results will help you decide how hot, cold, wet, or windy it might be!

Date:

Astronomy

Aug. 02, 2013 Rise Set
Actual Time 5:58 AM PDT 7:59 PM PDT
Civil Twilight 5:30 AM PDT 8:28 PM PDT
Nautical Twilight 4:55 AM PDT 9:03 PM PDT
Astronomical Twilight 4:17 AM PDT 9:41 PM PDT
Moon 2:24 AM PDT (8/2) 5:00 PM PDT (8/2)
Length of Visible Light 14h 58m
Length of Day
14h 00m
Waning Crescent, 15% of the Moon is Illuminated
Aug 2
Waning Crescent
Aug 6
New
Aug 14
First Quarter
Aug 20
Full
Aug 28
Last Quarter

Hourly Weather History & Observations

Time (PDT) Temp. Dew Point Humidity Pressure Visibility Wind Dir Wind Speed Gust Speed Precip Events Conditions
12:56 AM 66.0 °F 25.0 °F 21% 29.84 in 6.0 mi NW 3.5 mph - N/A   Haze
1:56 AM 59.0 °F 27.0 °F 29% 29.84 in 7.0 mi West 4.6 mph - N/A   Clear
2:56 AM 62.1 °F 27.0 °F 26% 29.84 in 5.0 mi West 4.6 mph - N/A   Haze
3:56 AM 59.0 °F 27.0 °F 29% 29.85 in 7.0 mi West 4.6 mph - N/A   Clear
4:56 AM 55.0 °F 28.0 °F 35% 29.85 in 6.0 mi WNW 5.8 mph - N/A   Haze
5:56 AM 57.9 °F 25.0 °F 28% 29.86 in 6.0 mi WNW 6.9 mph - N/A   Haze
6:56 AM 62.1 °F 23.0 °F 22% 29.86 in 10.0 mi NW 8.1 mph - N/A   Clear
7:56 AM 69.1 °F 21.9 °F 17% 29.88 in 10.0 mi NW 9.2 mph - N/A   Clear
8:56 AM 75.9 °F 21.9 °F 13% 29.88 in 10.0 mi WNW 8.1 mph - N/A   Clear
9:56 AM 80.1 °F 21.0 °F 11% 29.86 in 10.0 mi Variable 4.6 mph - N/A   Clear
10:56 AM 84.0 °F 19.0 °F 9% 29.84 in 10.0 mi Calm Calm - N/A   Clear
11:56 AM 86.0 °F 18.0 °F 8% 29.83 in 10.0 mi Calm Calm - N/A   Clear
12:56 PM 90.0 °F 17.1 °F 7% 29.79 in 10.0 mi SSW 5.8 mph - N/A   Clear
1:56 PM 91.9 °F 17.1 °F 6% 29.78 in 10.0 mi South 15.0 mph 23.0 mph N/A   Clear
2:56 PM 93.9 °F 19.0 °F 7% 29.75 in 10.0 mi SSE 12.7 mph 23.0 mph N/A   Clear
3:56 PM 93.9 °F 19.0 °F 7% 29.73 in 10.0 mi South 16.1 mph 21.9 mph N/A   Clear
4:56 PM 93.9 °F 18.0 °F 6% 29.73 in 10.0 mi SE 16.1 mph 23.0 mph N/A   Clear
5:56 PM 91.9 °F 21.0 °F 8% 29.73 in 10.0 mi SSE 21.9 mph 26.5 mph N/A   Clear
6:56 PM 89.1 °F 23.0 °F 9% 29.73 in 10.0 mi SSE 18.4 mph 25.3 mph N/A   Clear
7:56 PM 84.0 °F 27.0 °F 13% 29.73 in 10.0 mi SE 15.0 mph - N/A   Clear
8:56 PM 81.0 °F 26.1 °F 13% 29.76 in 10.0 mi SE 13.8 mph - N/A   Clear
9:56 PM 79.0 °F 26.1 °F 14% 29.79 in 10.0 mi SE 11.5 mph - N/A   Clear
10:56 PM 79.0 °F 26.1 °F 14% 29.79 in 10.0 mi SSE 15.0 mph - N/A   Clear
11:56 PM 77.0 °F 26.1 °F 15% 29.81 in 10.0 mi South 12.7 mph 18.4 mph N/A   Clear